Time,TemperatureF,DewpointF,PressureIn,WindDirection,WindDirectionDegrees,WindSpeedMPH,WindSpeedGustMPH,Humidity,HourlyPrecipIn,Conditions,Clouds,dailyrainin,SoftwareType,DateUTC
2013-03-09 00:01:00,39.0,38.0,-100.00,SSE,155,9.0,13.0,95,0.00,,,-99.99,,2013-03-09 06:01:00,
2013-03-09 00:11:00,39.0,38.0,-100.00,SSE,160,9.0,16.0,95,0.00,,,-99.99,,2013-03-09 06:11:00,
2013-03-09 00:22:00,39.0,38.0,-100.00,SSE,160,10.0,16.0,95,0.00,,,-99.99,,2013-03-09 06:22:00,
2013-03-09 00:32:00,40.0,39.0,-100.00,SE,145,11.0,16.0,95,0.00,,,-99.99,,2013-03-09 06:32:00,
2013-03-09 00:42:00,40.0,39.0,-100.00,SSE,155,9.0,16.0,95,0.00,,,-99.99,,2013-03-09 06:42:00,
2013-03-09 00:51:00,40.0,38.0,-100.00,South,170,7.0,12.0,95,0.00,,,-99.99,,2013-03-09 06:51:00,
2013-03-09 01:01:00,40.0,38.0,-100.00,South,170,7.0,12.0,95,0.00,,,-99.99,,2013-03-09 07:01:00,
2013-03-09 01:11:00,40.0,38.0,-100.00,SSE,165,7.0,12.0,95,0.00,,,-99.99,,2013-03-09 07:11:00,
2013-03-09 01:21:00,40.0,38.0,-100.00,South,175,8.0,11.0,95,0.00,,,-99.99,,2013-03-09 07:21:00,
2013-03-09 01:32:00,40.0,38.0,-100.00,South,170,11.0,17.0,92,0.00,,,-99.99,,2013-03-09 07:32:00,
2013-03-09 01:41:00,40.0,38.0,-100.00,South,180,11.0,17.0,91,0.00,,,-99.99,,2013-03-09 07:41:00,
2013-03-09 01:51:00,40.0,39.0,-100.00,SSE,165,11.0,17.0,95,0.14,,,-99.99,,2013-03-09 07:51:00,
2013-03-09 02:01:00,40.0,39.0,-100.00,SSE,165,11.0,17.0,95,0.14,,,-99.99,,2013-03-09 08:01:00,
2013-03-09 02:11:00,40.0,38.0,-100.00,South,185,11.0,17.0,95,0.14,,,-99.99,,2013-03-09 08:11:00,
2013-03-09 02:21:00,39.0,38.0,-100.00,South,180,11.0,19.0,95,0.14,,,-99.99,,2013-03-09 08:21:00,
2013-03-09 02:32:00,39.0,38.0,-100.00,South,185,13.0,17.0,95,0.16,,,-99.99,,2013-03-09 08:32:00,
2013-03-09 02:41:00,38.0,37.0,-100.00,South,170,13.0,26.0,95,0.00,,,-99.99,,2013-03-09 08:41:00,
2013-03-09 02:52:00,38.0,37.0,-100.00,South,175,11.0,22.0,95,0.00,,,-99.99,,2013-03-09 08:52:00,
2013-03-09 03:01:00,38.0,37.0,-100.00,South,175,11.0,22.0,95,0.00,,,-99.99,,2013-03-09 09:01:00,
2013-03-09 03:12:00,38.0,37.0,-100.00,South,180,15.0,22.0,95,0.16,,,-99.99,,2013-03-09 09:12:00,
2013-03-09 03:21:00,38.0,36.0,-100.00,SSW,195,14.0,22.0,95,0.27,,,-99.99,,2013-03-09 09:21:00,
2013-03-09 03:31:00,37.0,36.0,-100.00,South,185,14.0,24.0,95,0.01,,,-99.99,,2013-03-09 09:31:00,
2013-03-09 03:41:00,37.0,36.0,-100.00,South,180,10.0,22.0,95,0.28,,,-99.99,,2013-03-09 09:41:00,
2013-03-09 03:52:00,37.0,36.0,-100.00,SSE,160,9.0,17.0,95,0.17,,,-99.99,,2013-03-09 09:52:00,
2013-03-09 04:01:00,37.0,36.0,-100.00,SSE,160,9.0,17.0,95,0.17,,,-99.99,,2013-03-09 10:01:00,
2013-03-09 04:11:00,37.0,36.0,-100.00,South,185,9.0,17.0,95,0.17,,,-99.99,,2013-03-09 10:11:00,
2013-03-09 04:21:00,37.0,36.0,-100.00,SSW,200,10.0,17.0,95,0.35,,,-99.99,,2013-03-09 10:21:00,
2013-03-09 04:31:00,37.0,36.0,-100.00,South,190,11.0,20.0,95,2.24,,,-99.99,,2013-03-09 10:31:00,
2013-03-09 04:41:00,37.0,36.0,-100.00,South,170,10.0,16.0,95,0.00,,,-99.99,,2013-03-09 10:41:00,
2013-03-09 04:51:00,38.0,36.0,-100.00,South,185,12.0,21.0,95,0.00,,,-99.99,,2013-03-09 10:51:00,
2013-03-09 05:01:00,38.0,36.0,-100.00,South,185,12.0,21.0,95,0.00,,,-99.99,,2013-03-09 11:01:00,
2013-03-09 05:11:00,38.0,37.0,-100.00,South,180,15.0,21.0,95,0.00,,,-99.99,,2013-03-09 11:11:00,
2013-03-09 05:21:00,38.0,37.0,-100.00,South,180,11.0,20.0,95,0.00,,,-99.99,,2013-03-09 11:21:00,
2013-03-09 05:32:00,38.0,37.0,-100.00,South,175,15.0,22.0,95,0.00,,,-99.99,,2013-03-09 11:32:00,
2013-03-09 05:41:00,38.0,37.0,-100.00,South,170,12.0,18.0,95,0.00,,,-99.99,,2013-03-09 11:41:00,
2013-03-09 05:52:00,38.0,37.0,-100.00,SSE,160,12.0,18.0,95,0.00,,,-99.99,,2013-03-09 11:52:00,
2013-03-09 06:01:00,38.0,37.0,-100.00,SSE,160,12.0,18.0,95,0.00,,,-99.99,,2013-03-09 12:01:00,
2013-03-09 06:11:00,38.0,37.0,-100.00,South,185,11.0,16.0,95,0.07,,,-99.99,,2013-03-09 12:11:00,
2013-03-09 06:21:00,38.0,37.0,-100.00,South,170,11.0,16.0,95,0.00,,,-99.99,,2013-03-09 12:21:00,
2013-03-09 06:32:00,38.0,37.0,-100.00,South,180,10.0,17.0,95,0.08,,,-99.99,,2013-03-09 12:32:00,
2013-03-09 06:42:00,38.0,37.0,-100.00,South,180,10.0,18.0,95,0.00,,,-99.99,,2013-03-09 12:42:00,
2013-03-09 06:52:00,38.0,37.0,-100.00,South,170,10.0,18.0,95,0.00,,,-99.99,,2013-03-09 12:52:00,
2013-03-09 07:02:00,38.0,37.0,-100.00,South,170,10.0,18.0,95,0.00,,,-99.99,,2013-03-09 13:02:00,
2013-03-09 07:11:00,38.0,37.0,-100.00,SSE,160,12.0,17.0,95,0.00,,,-99.99,,2013-03-09 13:11:00,
2013-03-09 07:21:00,38.0,37.0,-100.00,South,170,12.0,21.0,95,0.00,,,-99.99,,2013-03-09 13:21:00,
2013-03-09 07:32:00,38.0,37.0,-100.00,South,175,9.0,17.0,95,0.00,,,-99.99,,2013-03-09 13:32:00,
2013-03-09 07:42:00,38.0,37.0,-100.00,South,175,9.0,17.0,95,0.00,,,-99.99,,2013-03-09 13:42:00,
2013-03-09 07:52:00,38.0,37.0,-100.00,South,180,11.0,22.0,95,0.00,,,-99.99,,2013-03-09 13:52:00,
2013-03-09 08:01:00,38.0,37.0,-100.00,South,180,11.0,22.0,95,0.00,,,-99.99,,2013-03-09 14:01:00,
2013-03-09 08:11:00,38.0,37.0,-100.00,South,175,12.0,19.0,95,0.00,,,-99.99,,2013-03-09 14:11:00,
2013-03-09 08:21:00,38.0,37.0,-100.00,South,175,14.0,21.0,95,0.00,,,-99.99,,2013-03-09 14:21:00,
2013-03-09 08:41:00,38.0,37.0,-100.00,South,180,13.0,17.0,95,0.00,,,-99.99,,2013-03-09 14:41:00,
2013-03-09 08:52:00,38.0,37.0,-100.00,SSE,165,12.0,21.0,95,0.00,,,-99.99,,2013-03-09 14:52:00,
2013-03-09 09:01:00,38.0,37.0,-100.00,SSE,165,12.0,21.0,95,0.00,,,-99.99,,2013-03-09 15:01:00,
2013-03-09 09:11:00,38.0,37.0,-100.00,South,170,11.0,19.0,95,0.00,,,-99.99,,2013-03-09 15:11:00,
2013-03-09 09:22:00,38.0,37.0,-100.00,South,180,10.0,18.0,95,0.00,,,-99.99,,2013-03-09 15:22:00,
2013-03-09 09:32:00,39.0,37.0,-100.00,South,190,12.0,23.0,95,0.00,,,-99.99,,2013-03-09 15:32:00,
2013-03-09 09:42:00,39.0,37.0,-100.00,South,190,12.0,23.0,95,0.00,,,-99.99,,2013-03-09 15:42:00,
2013-03-09 09:52:00,38.0,37.0,-100.00,South,180,14.0,21.0,95,0.00,,,-99.99,,2013-03-09 15:52:00,
2013-03-09 10:01:00,38.0,37.0,-100.00,South,180,14.0,21.0,95,0.00,,,-99.99,,2013-03-09 16:01:00,
2013-03-09 10:11:00,38.0,37.0,-100.00,South,190,11.0,21.0,95,0.00,,,-99.99,,2013-03-09 16:11:00,
2013-03-09 10:21:00,38.0,37.0,-100.00,South,185,13.0,21.0,95,0.00,,,-99.99,,2013-03-09 16:21:00,
2013-03-09 10:32:00,38.0,37.0,-100.00,South,185,14.0,21.0,95,0.20,,,-99.99,,2013-03-09 16:32:00,
2013-03-09 10:41:00,38.0,37.0,-100.00,South,185,14.0,21.0,95,0.20,,,-99.99,,2013-03-09 16:41:00,
2013-03-09 10:51:00,38.0,37.0,-100.00,South,185,13.0,22.0,95,0.23,,,-99.99,,2013-03-09 16:51:00,
2013-03-09 11:01:00,38.0,37.0,-100.00,South,185,13.0,22.0,95,0.23,,,-99.99,,2013-03-09 17:01:00,
2013-03-09 11:11:00,38.0,37.0,-100.00,South,180,13.0,22.0,95,0.10,,,-99.99,,2013-03-09 17:11:00,
2013-03-09 11:22:00,39.0,37.0,-100.00,South,180,11.0,22.0,95,0.17,,,-99.99,,2013-03-09 17:22:00,
2013-03-09 11:32:00,38.0,37.0,-100.00,South,180,15.0,23.0,95,0.14,,,-99.99,,2013-03-09 17:32:00,
2013-03-09 11:42:00,38.0,37.0,-100.00,South,180,11.0,17.0,95,0.10,,,-99.99,,2013-03-09 17:42:00,
2013-03-09 11:52:00,38.0,37.0,-100.00,South,190,9.0,16.0,95,0.10,,,-99.99,,2013-03-09 17:52:00,
2013-03-09 12:01:00,38.0,37.0,-100.00,South,190,9.0,16.0,95,0.10,,,-99.99,,2013-03-09 18:01:00,
2013-03-09 12:11:00,38.0,37.0,-100.00,South,185,12.0,17.0,95,0.25,,,-99.99,,2013-03-09 18:11:00,
2013-03-09 12:21:00,38.0,37.0,-100.00,South,180,9.0,17.0,95,0.13,,,-99.99,,2013-03-09 18:21:00,
2013-03-09 12:32:00,39.0,38.0,-100.00,South,185,10.0,18.0,95,0.08,,,-99.99,,2013-03-09 18:32:00,
2013-03-09 12:42:00,39.0,38.0,-100.00,SSW,195,8.0,17.0,95,0.08,,,-99.99,,2013-03-09 18:42:00,
2013-03-09 12:52:00,39.0,38.0,-100.00,South,180,10.0,16.0,95,0.16,,,-99.99,,2013-03-09 18:52:00,
2013-03-09 13:01:00,39.0,38.0,-100.00,South,180,10.0,16.0,95,0.16,,,-99.99,,2013-03-09 19:01:00,
2013-03-09 13:11:00,39.0,38.0,-100.00,South,185,7.0,13.0,95,0.23,,,-99.99,,2013-03-09 19:11:00,
2013-03-09 13:22:00,39.0,38.0,-100.00,South,185,10.0,12.0,95,0.13,,,-99.99,,2013-03-09 19:22:00,
2013-03-09 13:32:00,39.0,38.0,-100.00,South,180,9.0,12.0,95,0.10,,,-99.99,,2013-03-09 19:32:00,
2013-03-09 13:42:00,39.0,38.0,-100.00,South,170,6.0,14.0,95,0.08,,,-99.99,,2013-03-09 19:42:00,
2013-03-09 13:51:00,39.0,38.0,-100.00,South,190,8.0,11.0,95,0.08,,,-99.99,,2013-03-09 19:51:00,
2013-03-09 14:01:00,39.0,38.0,-100.00,South,190,8.0,11.0,95,0.08,,,-99.99,,2013-03-09 20:01:00,
2013-03-09 14:11:00,39.0,38.0,-100.00,South,180,8.0,12.0,95,0.31,,,-99.99,,2013-03-09 20:11:00,
2013-03-09 14:21:00,39.0,38.0,-100.00,South,180,7.0,11.0,95,0.24,,,-99.99,,2013-03-09 20:21:00,
2013-03-09 14:32:00,39.0,38.0,-100.00,South,180,6.0,11.0,95,0.13,,,-99.99,,2013-03-09 20:32:00,
2013-03-09 14:42:00,39.0,38.0,-100.00,South,185,8.0,11.0,95,0.38,,,-99.99,,2013-03-09 20:42:00,
2013-03-09 14:52:00,39.0,38.0,-100.00,SSE,160,8.0,11.0,95,0.40,,,-99.99,,2013-03-09 20:52:00,
2013-03-09 15:02:00,39.0,38.0,-100.00,SSE,160,8.0,11.0,95,0.40,,,-99.99,,2013-03-09 21:02:00,
2013-03-09 15:12:00,39.0,38.0,-100.00,SSE,165,7.0,11.0,95,0.10,,,-99.99,,2013-03-09 21:12:00,
2013-03-09 15:21:00,40.0,38.0,-100.00,South,175,6.0,9.0,95,0.07,,,-99.99,,2013-03-09 21:21:00,
2013-03-09 15:32:00,39.0,38.0,-100.00,South,170,6.0,12.0,95,0.20,,,-99.99,,2013-03-09 21:32:00,
2013-03-09 15:42:00,39.0,38.0,-100.00,SSE,160,6.0,9.0,95,0.24,,,-99.99,,2013-03-09 21:42:00,
2013-03-09 15:52:00,40.0,38.0,-100.00,South,185,6.0,12.0,95,0.08,,,-99.99,,2013-03-09 21:52:00,
2013-03-09 16:01:00,40.0,38.0,-100.00,South,185,6.0,12.0,95,0.08,,,-99.99,,2013-03-09 22:01:00,
2013-03-09 16:11:00,40.0,38.0,-100.00,South,185,6.0,11.0,95,0.10,,,-99.99,,2013-03-09 22:11:00,
2013-03-09 16:21:00,40.0,39.0,-100.00,South,170,6.0,9.0,95,0.14,,,-99.99,,2013-03-09 22:21:00,
2013-03-09 16:32:00,40.0,38.0,-100.00,South,180,6.0,12.0,95,0.21,,,-99.99,,2013-03-09 22:32:00,
2013-03-09 16:41:00,40.0,38.0,-100.00,South,175,4.0,13.0,95,0.21,,,-99.99,,2013-03-09 22:41:00,
2013-03-09 16:51:00,40.0,39.0,-100.00,SSE,160,6.0,12.0,95,0.55,,,-99.99,,2013-03-09 22:51:00,
2013-03-09 17:01:00,40.0,39.0,-100.00,SSE,160,6.0,12.0,95,0.55,,,-99.99,,2013-03-09 23:01:00,
2013-03-09 17:11:00,40.0,39.0,-100.00,South,190,7.0,12.0,95,0.11,,,-99.99,,2013-03-09 23:11:00,
2013-03-09 17:21:00,40.0,39.0,-100.00,South,180,6.0,11.0,95,0.41,,,-99.99,,2013-03-09 23:21:00,
2013-03-09 17:32:00,40.0,39.0,-100.00,South,185,7.0,12.0,95,0.34,,,-99.99,,2013-03-09 23:32:00,
2013-03-09 17:41:00,41.0,40.0,-100.00,South,175,4.0,10.0,95,0.47,,,-99.99,,2013-03-09 23:41:00,
2013-03-09 17:52:00,41.0,40.0,-100.00,South,185,6.0,9.0,95,0.17,,,-99.99,,2013-03-09 23:52:00,
2013-03-09 18:01:00,41.0,40.0,-100.00,South,185,6.0,9.0,95,0.17,,,-99.99,,2013-03-10 00:01:00,
2013-03-09 18:11:00,41.0,40.0,-100.00,South,180,6.0,9.0,95,0.11,,,-99.99,,2013-03-10 00:11:00,
2013-03-09 18:22:00,41.0,40.0,-100.00,South,170,4.0,9.0,95,0.07,,,-99.99,,2013-03-10 00:22:00,
2013-03-09 18:32:00,41.0,40.0,-100.00,SSE,160,4.0,9.0,95,0.11,,,-99.99,,2013-03-10 00:32:00,
2013-03-09 18:42:00,41.0,40.0,-100.00,SSE,160,4.0,9.0,95,0.11,,,-99.99,,2013-03-10 00:42:00,
2013-03-09 18:51:00,41.0,40.0,-100.00,SSE,165,2.0,6.0,95,0.16,,,-99.99,,2013-03-10 00:51:00,
2013-03-09 19:01:00,41.0,40.0,-100.00,SSE,165,2.0,6.0,95,0.16,,,-99.99,,2013-03-10 01:01:00,
2013-03-09 19:11:00,41.0,39.0,-100.00,SSE,155,3.0,7.0,95,0.07,,,-99.99,,2013-03-10 01:11:00,
2013-03-09 19:21:00,40.0,39.0,-100.00,SE,130,2.0,6.0,95,0.08,,,-99.99,,2013-03-10 01:21:00,
2013-03-09 19:31:00,40.0,39.0,-100.00,SSE,165,4.0,6.0,95,0.06,,,-99.99,,2013-03-10 01:31:00,
2013-03-09 19:41:00,41.0,40.0,-100.00,South,175,4.0,7.0,95,0.07,,,-99.99,,2013-03-10 01:41:00,
2013-03-09 19:51:00,40.0,39.0,-100.00,SE,125,4.0,7.0,95,0.06,,,-99.99,,2013-03-10 01:51:00,
2013-03-09 20:01:00,40.0,39.0,-100.00,SE,125,4.0,7.0,95,0.06,,,-99.99,,2013-03-10 02:01:00,
2013-03-09 20:11:00,41.0,39.0,-100.00,South,175,4.0,9.0,95,0.17,,,-99.99,,2013-03-10 02:11:00,
2013-03-09 20:22:00,41.0,40.0,-100.00,South,185,4.0,9.0,95,0.14,,,-99.99,,2013-03-10 02:22:00,
2013-03-09 20:32:00,41.0,40.0,-100.00,SSE,165,6.0,11.0,95,0.20,,,-99.99,,2013-03-10 02:32:00,
2013-03-09 20:42:00,42.0,40.0,-100.00,ESE,105,4.0,9.0,95,0.18,,,-99.99,,2013-03-10 02:42:00,
2013-03-09 20:52:00,40.0,39.0,-100.00,ESE,105,6.0,7.0,95,0.17,,,-99.99,,2013-03-10 02:52:00,
2013-03-09 21:01:00,40.0,39.0,-100.00,ESE,105,6.0,7.0,95,0.17,,,-99.99,,2013-03-10 03:01:00,
2013-03-09 21:11:00,41.0,39.0,-100.00,SSE,150,3.0,5.0,95,0.03,,,-99.99,,2013-03-10 03:11:00,
2013-03-09 21:22:00,41.0,39.0,-100.00,SE,145,4.0,9.0,95,0.04,,,-99.99,,2013-03-10 03:22:00,
2013-03-09 21:32:00,41.0,40.0,-100.00,SE,145,3.0,5.0,95,0.00,,,-99.99,,2013-03-10 03:32:00,
2013-03-09 21:42:00,40.0,39.0,-100.00,East,100,4.0,7.0,95,0.10,,,-99.99,,2013-03-10 03:42:00,
2013-03-09 21:52:00,41.0,40.0,-100.00,SE,125,5.0,6.0,95,0.00,,,-99.99,,2013-03-10 03:52:00,
2013-03-09 22:01:00,41.0,40.0,-100.00,SE,125,5.0,6.0,95,0.00,,,-99.99,,2013-03-10 04:01:00,
2013-03-09 22:11:00,42.0,41.0,-100.00,South,190,7.0,9.0,95,0.00,,,-99.99,,2013-03-10 04:11:00,
2013-03-09 22:21:00,43.0,42.0,-100.00,South,185,9.0,13.0,95,0.00,,,-99.99,,2013-03-10 04:21:00,
2013-03-09 22:31:00,44.0,43.0,-100.00,South,175,8.0,12.0,95,0.11,,,-99.99,,2013-03-10 04:31:00,
2013-03-09 22:41:00,44.0,43.0,-100.00,SSE,165,6.0,14.0,95,0.11,,,-99.99,,2013-03-10 04:41:00,
2013-03-09 22:51:00,45.0,44.0,-100.00,SE,135,5.0,11.0,95,0.16,,,-99.99,,2013-03-10 04:51:00,
2013-03-09 23:01:00,45.0,44.0,-100.00,SE,135,5.0,11.0,95,0.16,,,-99.99,,2013-03-10 05:01:00,
2013-03-09 23:11:00,45.0,43.0,-100.00,ESE,115,3.0,10.0,95,0.16,,,-99.99,,2013-03-10 05:11:00,
2013-03-09 23:22:00,45.0,44.0,-100.00,SSE,165,4.0,7.0,95,0.18,,,-99.99,,2013-03-10 05:22:00,
2013-03-09 23:31:00,45.0,44.0,-100.00,SSE,160,6.0,9.0,95,0.25,,,-99.99,,2013-03-10 05:31:00,
2013-03-09 23:42:00,44.0,43.0,-100.00,SSE,150,12.0,18.0,95,0.23,,,-99.99,,2013-03-10 05:42:00,
2013-03-09 23:52:00,47.0,45.0,-100.00,South,185,7.0,14.0,95,0.11,,,-99.99,,2013-03-10 05:52:00,